Location: Newark
(27.9675°N, 86.8869°E)
Time: 08:41:10
(UTC+00:00)

Explorer 7 - All Passes

Search period start: 18 October 2019 00:00
Search period end: 28 October 2019 00:00
Orbit: 485 x 680 km, 50.3° (Epoch: 17 October)

Date Brightness Start Highest point End Pass type
(mag) Time Alt. Az. Time Alt. Az. Time Alt. Az.
18 Oct - 05:00:10 10° SW 05:03:57 90° NW 05:07:42 10° NE daylight
18 Oct - 06:44:11 10° NW 06:44:52 10° NNW 06:45:32 10° NNW daylight
18 Oct - 11:50:02 10° N 11:52:11 14° NNE 11:54:25 10° ENE daylight
18 Oct - 13:28:49 10° NW 13:33:02 80° SW 13:37:32 10° SE visible
19 Oct - 03:26:51 10° SSE 03:28:47 13° SE 03:30:42 10° E daylight
19 Oct - 05:05:20 10° WSW 05:08:57 43° NW 05:12:33 10° NNE daylight
19 Oct - 11:54:11 10° NNW 11:57:23 22° NE 12:00:44 10° E daylight
19 Oct - 13:33:59 10° WNW 13:37:59 41° SW 13:42:11 10° SSE visible
20 Oct - 03:30:23 10° S 03:33:38 26° SE 03:36:50 10° ENE daylight
20 Oct - 05:10:56 10° W 05:14:02 24° NW 05:17:08 10° NNE daylight
20 Oct - 11:58:42 10° NNW 12:02:29 36° NE 12:06:30 10° ESE visible
20 Oct - 13:39:34 10° WNW 13:42:52 22° SW 13:46:20 10° S visible
21 Oct - 03:34:46 10° SSW 03:38:32 55° SE 03:42:13 10° NE daylight
21 Oct - 05:17:05 10° WNW 05:19:13 14° NW 05:21:21 10° N daylight
21 Oct - 12:03:27 10° NW 12:07:31 67° NE 12:11:50 10° SE visible
21 Oct - 13:46:13 10° WSW 13:47:43 12° SW 13:49:16 10° SSW visible
22 Oct - 03:39:39 10° SW 03:43:29 71° NW 03:47:15 10° NE daylight
22 Oct - 10:29:21 10° N 10:31:45 15° NE 10:34:13 10° ENE daylight
22 Oct - 12:08:26 10° NW 12:12:29 64° SW 12:16:47 10° SSE visible
23 Oct - 02:05:36 10° S 02:08:15 17° SE 02:10:50 10° E daylight
23 Oct - 03:44:57 10° WSW 03:48:31 36° NW 03:52:00 10° NNE daylight
23 Oct - 10:33:37 10° NNW 10:36:54 24° NE 10:40:21 10° E daylight
23 Oct - 12:13:43 10° WNW 12:17:23 32° SW 12:21:17 10° SSE visible
24 Oct - 02:09:31 10° SSW 02:13:08 34° SE 02:16:36 10° ENE daylight
24 Oct - 03:50:41 10° W 03:53:36 20° NW 03:56:30 10° NNE daylight
24 Oct - 10:38:12 10° NNW 10:41:59 42° NE 10:45:58 10° ESE daylight
24 Oct - 12:19:32 10° W 12:22:16 17° SW 12:25:08 10° S visible
25 Oct - 02:14:06 10° SW 02:18:03 71° SE 02:21:50 10° NE daylight
25 Oct - 03:57:06 10° WNW 03:58:48 13° NNW 04:00:30 10° N daylight
25 Oct - 09:05:12 10° NNE 09:06:04 11° NNE 09:06:56 10° NE daylight
25 Oct - 10:43:00 10° NW 10:46:59 82° NE 10:51:11 10° SE daylight
26 Oct - 00:41:32 10° SE 00:42:51 11° SE 00:44:08 10° ESE daylight
26 Oct - 02:19:07 10° WSW 02:23:01 56° NW 02:26:46 10° NE daylight
26 Oct - 09:08:41 10° N 09:11:18 17° NE 09:13:58 10° ENE daylight
26 Oct - 10:48:04 10° NW 10:51:55 50° SW 10:55:59 10° SSE daylight
27 Oct - 00:44:31 10° S 00:47:42 22° SE 00:50:47 10° ENE daylight
27 Oct - 02:24:33 10° WSW 02:28:03 30° NW 02:31:27 10° NNE daylight
27 Oct - 09:13:03 10° NNW 09:16:26 28° NE 09:19:56 10° E daylight
27 Oct - 10:53:30 10° WNW 10:56:49 25° SW 11:00:18 10° S daylight
